Flight Information

DEPARTURE
SPOKANE, WA
Elevation:
2385
Runways:
3/21 - 11002x150 - ASPH-CONC-E
8/26 - 8199x150 - ASPH-G
ATIS:
124.325
Clearance Delivery:
127.55
Ground:
121.9
Tower:
SPOKANE TOWER 118.3
DESTINATION
,
Elevation:
TPA:
1000 (est.)


6489.1 NM69° True-19° Var49° HDG

Flight Plan:
(click to file on line)

1. Type
2. Aircraft Identification
3. Aircraft Type / Special Equipment
4. True Airspeed
kts
5. Departure Airport
(ICAO code)
6. Arriving Airport
(ICAO code)
7. Cruising Altitude
ft
8. Alternate Airport
(ICAO code)
9. Route of Flight
10. Remarks


00:00:00 Departure ATIS: Destination ATIS:

Clearance Limit:
Route:
Altitude: Expect in minutes
Frequency:
Transponder: (7500 Hijack / 7600 Lost Comms / 7700 Emergency)


KGEG 282108Z 00000KT 3SM BR SCT006 BKN200 M03/M05 A3046 RMK AO2 I1000 T10331050
Time: 2022-01-28T21:08:00Z
1643405656
Winds: calm
Visibility: 3.0 sm
Clouds (AGL): SCT 600
BKN 20000
Temperature: -3.3 C
Dew Point: -5.0 C
Pressure: 30.46063 in Hgbr


Notes:

Data extracted from FAA Digital Chart Supplement. Effective: 0901Z Thursday, DEC 2, 2021 to 0901Z Thursday, JAN 27, 2022
Current ATIS data is provided courtisy of PilotEdge.